User: anonymous   Login
Location: *
(33.6842°N, 117.7925°W)
Time: 07:26:03
(UTC+00:00)
Language:

Nadezhda 3 Rocket - Orbit

View from above orbital plane
View from above orbital plane
View from above satellite
View from above satellite

Ground track
Ground track

The orbit data is extracted from the following two-line orbital elements,

1 21153U 91019B   19343.88690389 +.00000034 +00000-0 +18864-4 0  9991
2 21153 082.9266 248.6954 0029881 137.3367 291.7742 13.75927746442949
Epoch (UTC): 09 December 2019 21:17:08
Eccentricity: 0.0029881
inclination: 82.9266°
perigee height: 956 km
apogee height: 1000 km
right ascension of ascending node: 248.6954°
argument of perigee: 137.3367°
revolutions per day: 13.75927746
mean anomaly at epoch: 291.7742°
orbit number at epoch: 44294

The dashed part of the orbit path shows where the satellite is in the earth's shadow,  

DLR